(247) Eukrate
ephemeris date magn radius delta ra dec elong phase
Today18 Sep 202513.62.790 AU3.778 AU11h22m+09°28'8.8°3.2°
Opposition6 Apr 202612.83.208 AU2.221 AU12h46m-17°12'168.7°3.5°
(247) Eukrate - 2025-09-18
astro.vanbuitenen.nl


 
-1 year
-1 month
-1 day
Now
+1 day
+1 month
+1 year

The interactive orbit chart above shows the body's path through the solar system and its position at the given date. Green and blue lines are shown perpendicular to the ecliptic plane: Green if the path is above the ecliptic plane, blue if it is below. (Left-click and drag to rotate the view; Right-click and drag to move the view; Use scroll wheel to zoom in our out.)

The orbital elements of Eukrate are:

            e (Eccentricity)                : 0.2465000
            a (Semimajor axis)              : 2.7396832
            i (Inclination)                 : 24.95339
            Ω (Longitude of ascending node) : 0.01869
            ω (Argument of perihelion)      : 55.29903
            M (Mean anomaly)                : 50.59313
            Epoch                           : 2025 May 05

            L (Longitude of perihelion)     : 52.64779
            B (Latitude of perihelion)      : 20.29433
            P (Orbital period in years)     : 4.53            
        

The light curve chart below shows the estimated development of the minor planet's magnitude.


The all-sky chart below shows the path of the minor planet over the same period as the light curve. The current position is marked yellow.





The following chart shows the path of the minor planet in the next few days. The field of view is optimized for (~10x50) binoculars and finderscopes. A more printer-friendly version of the same chart can be found below.




Ephemerides:
Date       Time       RA (2000)    DEC (2000)    delta   radius  elong  phase   PA    magn
2025-09-18 00:00 UT   11 22 50.2   +09 28 46     3.778    2.790    8.8    3.2   328   13.6 
2025-09-18 09:20 UT   11 23 22.2   +09 23 56     3.779    2.791    9.0    3.2   327   13.6 
2025-09-19 00:00 UT   11 24 12.3   +09 16 21     3.779    2.792    9.3    3.3   325   13.6 
2025-09-20 00:00 UT   11 25 34.1   +09 03 58     3.779    2.795    9.7    3.5   323   13.6 
2025-09-21 00:00 UT   11 26 55.7   +08 51 35     3.780    2.797   10.2    3.7   321   13.6 
2025-09-22 00:00 UT   11 28 17.1   +08 39 14     3.780    2.800   10.7    3.8   320   13.6 
2025-09-23 00:00 UT   11 29 38.3   +08 26 53     3.780    2.802   11.2    4.0   318   13.7 
2025-09-24 00:00 UT   11 30 59.2   +08 14 34     3.779    2.805   11.7    4.2   317   13.7 
2025-09-25 00:00 UT   11 32 20.0   +08 02 16     3.779    2.807   12.3    4.4   315   13.7 
2025-09-26 00:00 UT   11 33 40.5   +07 49 59     3.779    2.810   12.8    4.5   314   13.7 
2025-09-27 00:00 UT   11 35 00.8   +07 37 43     3.778    2.812   13.3    4.7   313   13.7 
2025-09-28 00:00 UT   11 36 20.9   +07 25 29     3.777    2.815   13.9    4.9   312   13.7 
2025-09-29 00:00 UT   11 37 40.7   +07 13 16     3.776    2.817   14.4    5.1   311   13.7 
2025-09-30 00:00 UT   11 39 00.3   +07 01 04     3.775    2.819   15.0    5.3   310   13.7 
2025-10-01 00:00 UT   11 40 19.7   +06 48 53     3.774    2.822   15.5    5.5   309   13.7 
2025-10-02 00:00 UT   11 41 38.9   +06 36 44     3.772    2.824   16.1    5.6   308   13.8 
2025-10-03 00:00 UT   11 42 57.8   +06 24 36     3.771    2.827   16.7    5.8   308   13.8 
2025-10-04 00:00 UT   11 44 16.5   +06 12 29     3.769    2.829   17.2    6.0   307   13.8 
2025-10-05 00:00 UT   11 45 34.9   +06 00 24     3.767    2.832   17.8    6.2   306   13.8 
2025-10-06 00:00 UT   11 46 53.2   +05 48 20     3.765    2.834   18.4    6.4   306   13.8 
2025-10-07 00:00 UT   11 48 11.1   +05 36 18     3.763    2.837   19.0    6.6   305   13.8 
2025-10-08 00:00 UT   11 49 28.9   +05 24 17     3.761    2.839   19.6    6.8   305   13.8 
2025-10-09 00:00 UT   11 50 46.4   +05 12 17     3.758    2.842   20.1    7.0   304   13.8 


    Terminology:
            
    delta:  distance between minor planet and earth in AU
    radius: distance between minor planet and sun in AU
    magn:   magnitude (brightness) estimate    
    ra:     right ascension in hours (24h = 360deg)
    dec:    declination in degrees
    elong:  elongation in degrees (angle sun-earth-minor planet)    
    phase:  phase angle in degrees (angle sun-minor planet-earth)        
    AU:     Astronomical Unit (mean distance between earth and sun: 149597870.7 km
    

Orbital elements provided by the MPC (Minor Planet Center).
Calculations by a modified version of AAPlus, a C# implementation of the AA+ project by PJ Naughter from the algorithms presented in the book "Astronomical Algorithms" by Jean Meeus.
NGC2000 dso catalog and star labels from VizieR as provided by the Strasbourg astronomical Data Center.
Tycho2 catalog from the ESO archive.